Las Vegas, NM

5:39 PM MDT on May 23, 2018 (GMT -0600)
Las Vegas Municipal

Weather History for KLVS - February, 2014

Change the Weather History Date:

Monday, February 10, 2014

  Actual Average Record
Temperature  
Mean Temperature 34 °F -  
Max Temperature 53 °F 49 °F 72 °F (2017)
Min Temperature 14 °F 20 °F -6 °F (1986)
Degree Days  
Heating Degree Days 32    
Moisture  
Dew Point 19 °F    
Average Humidity 75    
Maximum Humidity 95    
Minimum Humidity 32    
Precipitation  
Precipitation 0.00 in - - ()
Sea Level Pressure  
Sea Level Pressure 29.95 in    
Wind  
Wind Speed 10 mph (South)    
Max Wind Speed 21 mph    
Max Gust Speed 37 mph    
Visibility 7 miles    
Events Fog    
Averages and records for this station are not official NWS values.
T = Trace of Precipitation, MM = Missing Value Source: NWS Daily Summary

Daily Weather History Graph

Daily Weather History Graph

Search for Another Location

Airport or City:

Astronomy

Feb. 10, 2014 Rise Set
Actual Time 6:52 AM MST 5:37 PM MST
Civil Twilight 6:26 AM MST 6:03 PM MST
Nautical Twilight 5:56 AM MST 6:34 PM MST
Astronomical Twilight 5:26 AM MST 7:03 PM MST
Moon 2:11 PM MST (2/10) 3:44 AM MST (2/10)
Length of Visible Light 11h 37m
Length of Day
10h 45m
Waxing Gibbous, 85% of the Moon is Illuminated
Feb 10
Waxing Gibbous
Feb 14
Full
Feb 22
Last Quarter
Mar 1
New
Mar 8
First Quarter

Hourly Weather History & Observations

Time (MST) Temp. Windchill Dew Point Humidity Pressure Visibility Wind Dir Wind Speed Gust Speed Precip Events Conditions
12:34 AM 34.0 °F 24.6 °F 21.0 °F 59% 29.99 in 10.0 mi SSE 13.8 mph - N/A   Clear
12:53 AM 32.0 °F 23.0 °F 21.0 °F 64% 29.82 in 10.0 mi SSE 11.5 mph - N/A   Clear
1:53 AM 23.0 °F 9.6 °F 17.1 °F 78% 29.88 in 10.0 mi South 16.1 mph - N/A   Clear
2:53 AM 19.9 °F 7.9 °F 16.0 °F 85% 29.89 in 10.0 mi South 11.5 mph - N/A   Clear
3:53 AM 17.1 °F 10.0 °F 14.0 °F 88% 29.91 in 10.0 mi South 4.6 mph - N/A   Clear
4:37 AM 15.1 °F 6.4 °F 12.9 °F 91% 30.00 in 6.0 mi SSE 5.8 mph - N/A   Scattered Clouds
4:53 AM 15.1 °F - 12.9 °F 91% 29.96 in 2.5 mi Calm Calm - N/A   Mostly Cloudy
4:56 AM 15.1 °F 9.4 °F 14.0 °F 95% 30.02 in 0.8 mi South 3.5 mph - N/A   Overcast
5:29 AM 15.1 °F - 12.9 °F 91% 30.02 in 0.2 mi Calm Calm - N/A Fog Light Freezing Fog
5:53 AM 14.0 °F 6.5 °F 12.9 °F 95% 29.97 in 0.2 mi South 4.6 mph - N/A Fog Light Freezing Fog
6:53 AM 16.0 °F 8.8 °F 14.0 °F 92% 29.99 in 0.2 mi Variable 4.6 mph - N/A Fog Light Freezing Fog
7:53 AM 17.1 °F 8.7 °F 15.1 °F 92% 29.96 in 0.2 mi SW 5.8 mph - N/A Fog Light Freezing Fog
8:40 AM 21.0 °F 10.6 °F 19.0 °F 92% 29.99 in 0.5 mi South 9.2 mph - N/A Fog Light Freezing Fog
8:46 AM 23.0 °F 13.1 °F 19.9 °F 88% 29.99 in 2.0 mi South 9.2 mph - N/A   Mostly Cloudy
8:53 AM 24.1 °F 18.2 °F 21.0 °F 88% 29.93 in 7.0 mi SSW 4.6 mph - N/A   Scattered Clouds
9:53 AM 37.9 °F 27.6 °F 27.0 °F 65% 29.85 in 10.0 mi South 20.7 mph - N/A   Clear
10:53 AM 46.0 °F 38.8 °F 26.1 °F 46% 29.80 in 10.0 mi South 18.4 mph - N/A   Clear
11:53 AM 48.9 °F - 25.0 °F 39% 29.75 in 10.0 mi South 17.3 mph - N/A   Partly Cloudy
12:53 PM 50.0 °F - 24.1 °F 36% 29.79 in 10.0 mi South 16.1 mph - N/A   Mostly Cloudy
1:53 PM 48.0 °F - 24.1 °F 39% 29.81 in 10.0 mi South 17.3 mph - N/A   Overcast
2:53 PM 53.1 °F - 24.1 °F 32% 29.81 in 10.0 mi West 15.0 mph 36.8 mph N/A   Overcast
3:53 PM 43.0 °F 35.4 °F 23.0 °F 45% 29.88 in 10.0 mi South 16.1 mph 23.0 mph N/A   Mostly Cloudy
4:53 PM 37.0 °F 27.4 °F 21.9 °F 54% 29.94 in 10.0 mi South 17.3 mph - N/A   Scattered Clouds
5:53 PM 32.0 °F 22.1 °F 21.0 °F 64% 29.99 in 10.0 mi South 13.8 mph - N/A   Clear
6:15 PM 30.0 °F 17.2 °F 19.9 °F 66% 29.99 in 10.0 mi ENE 20.7 mph 31.1 mph N/A   Scattered Clouds
6:53 PM 23.0 °F 10.6 °F 19.0 °F 85% 30.09 in 9.0 mi East 13.8 mph - N/A   Scattered Clouds
7:53 PM 25.0 °F 16.3 °F 19.0 °F 78% 30.11 in 10.0 mi West 8.1 mph - N/A   Mostly Cloudy
8:53 PM 19.9 °F 12.1 °F 16.0 °F 85% 30.11 in 9.0 mi SSE 5.8 mph - N/A   Clear
9:53 PM 19.9 °F 12.1 °F 17.1 °F 89% 30.06 in 8.0 mi South 5.8 mph - N/A   Partly Cloudy
10:53 PM 19.9 °F 13.4 °F 18.0 °F 92% 30.02 in 6.0 mi SSW 4.6 mph - N/A   Scattered Clouds
11:03 PM 19.9 °F 13.4 °F 18.0 °F 92% 30.06 in 6.0 mi SSW 4.6 mph - N/A   Mostly Cloudy
11:36 PM 19.9 °F 12.1 °F 17.1 °F 89% 30.06 in 7.0 mi WSW 5.8 mph - N/A   Scattered Clouds
11:53 PM 21.0 °F 16.2 °F 18.0 °F 88% 30.00 in 7.0 mi West 3.5 mph - N/A   Clear